Flag for Slovakia Weather past 2 weeks in Prešov, Slovakia

Now
86 °F

Passing clouds.


Feels Like: 84 °F
Forecast: 60 / 93 °F
Wind: 9 mph from North

Location: Kosice - Barca

Current Time: Jul 5, 2015 at 11:59:49 AM

Latest Report: Jul 5, 2015 at 11:30 AM


Visibility: N/A

Pressure: 30.09 "Hg

Humidity: 29%

Dew point: 50 °F

Location of PrešovLocation

Historic Weather in Prešov — Graph

°F

Prešov temperature yesterday

Maximum temperature yesterday: 88 °F (at 3:30 PM)
Minimum temperature yesterday: 57 °F (at 5:00 AM)
Average temperature yesterday: 75 °F

Past Weeks' High & Low Weather Summary

 TemperatureHumidityPressure
High88 °F (Jul 4, 3:30 PM)94% (Jun 21, 6:00 AM)30.36 "Hg (Jun 21, 6:00 AM)
Low45 °F (Jun 22, 3:00 AM)24% (Jul 4, 5:00 PM)29.86 "Hg (Jun 23, 5:30 AM)
Average65 °F63%30.09 "Hg
* Reported Jun 20 11:00 AM — Jul 5 11:00 AM, Prešov, Weather by CustomWeather, © 2015

Note: Actual official high and low records may vary slightly from our data, if they occured in-between our weather recording intervals... More about our weather records

Advertising

Prešov weather history for previous 24 hours

 ConditionsComfort  
Time TempWeatherWind HumidityBarometerVisibility
11:00 AM
Sun, Jul 5
84 °FPassing clouds.6 mph35%30.09 "HgN/A
10:30 AM82 °FPassing clouds.8 mph40%30.09 "HgN/A
10:00 AM82 °FPassing clouds.7 mph37%30.09 "HgN/A
9:30 AM81 °FPassing clouds.6 mph39%30.09 "HgN/A
9:00 AM77 °FSunny.5 mph54%30.12 "Hg10 mi
8:30 AM75 °FPassing clouds.3 mph57%30.12 "HgN/A
8:00 AM73 °FSunny.2 mph61%30.12 "Hg10 mi
7:30 AM72 °FPassing clouds.3 mph61%30.12 "HgN/A
7:00 AM70 °FSunny.2 mph64%30.12 "Hg10 mi
6:30 AM66 °FSunny.1 mph73%30.12 "Hg10 mi
6:00 AM63 °FSunny.2 mph73%30.12 "Hg10 mi
5:30 AM61 °FClear.2 mph72%30.12 "Hg10 mi
5:00 AM61 °FClear.1 mph72%30.12 "Hg10 mi
4:30 AM61 °FClear.1 mph72%30.12 "Hg10 mi
4:00 AM61 °FClear.1 mph72%30.12 "Hg10 mi
3:30 AM61 °FClear.2 mph72%30.12 "Hg10 mi
3:00 AM61 °FClear.1 mph72%30.12 "Hg10 mi
2:30 AM64 °FClear.1 mph64%30.12 "Hg10 mi
2:00 AM63 °FClear.2 mph68%30.12 "Hg10 mi
1:30 AM64 °FClear.No wind64%30.15 "Hg10 mi
1:00 AM68 °FClear.1 mph60%30.15 "Hg10 mi
12:30 AM68 °FClear.5 mph56%30.15 "Hg10 mi
12:00 AM64 °FClear.3 mph68%30.15 "Hg10 mi
11:30 PM
Sat, Jul 4
68 °FClear.3 mph60%30.15 "Hg10 mi
11:00 PM66 °FClear.6 mph68%30.15 "Hg10 mi
10:30 PM70 °FClear.2 mph57%30.15 "Hg10 mi
10:00 PM72 °FClear.2 mph57%30.15 "Hg10 mi
9:30 PM73 °FSunny.2 mph50%30.15 "Hg10 mi
9:00 PM75 °FSunny.5 mph50%30.15 "Hg10 mi
8:30 PM81 °FSunny.5 mph39%30.15 "Hg10 mi
8:00 PM82 °FSunny.5 mph35%30.15 "Hg10 mi
7:30 PM84 °FSunny.6 mph35%30.15 "Hg10 mi
7:00 PM86 °FSunny.8 mph31%30.15 "Hg10 mi
6:30 PM86 °FSunny.7 mph29%30.15 "Hg10 mi
6:00 PM86 °FSunny.8 mph31%30.15 "Hg10 mi
5:30 PM88 °FPassing clouds.6 mph27%30.15 "HgN/A
5:00 PM88 °FPassing clouds.5 mph24%30.18 "HgN/A
4:30 PM88 °FPassing clouds.5 mph25%30.18 "HgN/A
4:00 PM88 °FSunny.3 mph27%30.18 "Hg10 mi
3:30 PM88 °FSunny.5 mph25%30.18 "Hg10 mi
3:00 PM86 °FPassing clouds.5 mph25%30.21 "HgN/A
2:30 PM86 °FSunny.3 mph25%30.21 "Hg10 mi
2:00 PM86 °FSunny.5 mph25%30.21 "Hg10 mi
1:30 PM86 °FSunny.3 mph29%30.21 "Hg10 mi
1:00 PM84 °FSunny.5 mph31%30.24 "Hg10 mi
12:30 PM84 °FSunny.2 mph33%30.24 "Hg10 mi
12:00 PM82 °FSunny.3 mph35%30.24 "Hg10 mi
11:30 AM81 °FSunny.2 mph34%30.27 "Hg10 mi
11:00 AM81 °FSunny.3 mph39%30.27 "Hg10 mi
Weather by CustomWeather, © 2015

See weather overviewHow to use our weather pages